SL-16 DEB

Satellite information

Favourite Embed

Satellite Type and Status

DEBRISIN ORBIT

Key statistics

Satellite SL-16 DEB at a glance.

Uptime

12002

Days in orbit

Revolutions

≈ 14.5

Per day

Orbit

LEO

Low Earth Orbit

Inclination

71.3

Latest

Satellite identification and parameters

Extended collection of information and parameters for SL-16 DEB.

Object identification

Identified? True

Debris? True

Object name: SL-16 DEB

International designator: 1992-093EE

Object number (NORAD): 22437

Object ID (CCSDS): 22437

Country: COMMONWEALTH OF INDEPENDENT STATES (CIS)

Current information (Y/N): Y

RCS size: SMALL

Orbital parameters

Period: 99.059 minutes

Inclination: 71.3302 deg

SMA: 7091.775 km

Apoapsis: 739.692 km

Periapsis: 687.588 km

RAAN: 266.2067 deg

Eccentricy: 0.0036735

Argument of periapsis: 214.8028 deg

Mean anomaly: 145.0714 deg

Mean motion: 14.53685087 rev/day

Mean motion (dot): 0.00003782 rev/day2

B* drag term: 0.00090663 1/REarth

Two-line elements (TLE)

Creation date: Nov. 3, 2025, 11:16 p.m.

Reference frame: TEME

Reference center: EARTH

Epoch: Nov. 3, 2025, 8:07 p.m. UTC

TLE line 0: 0 SL-16 DEB

TLE line 1: 1 22437U 92093EE 25307.83827669 .00003782 00000-0 90663-3 0 9994

TLE line 2: 2 22437 71.3302 266.2067 0036735 214.8028 145.0714 14.53685087716142

Live tracking on map

Real-time ground track for satellite SL-16 DEB.

In-orbit conjunctions

A list of the most updated potential collisions computed for object SL-16 DEB.

Target Orbit TCA Probability of collision Miss distance Type
NOAA 17 DEB SSO 2024-09-25 12:33:11 0.0005061082 329.0 (m) DEBRIS
THOR ABLESTAR DEB LEO 2024-06-23 10:04:44 0.0004117566 44.0 (m) DEBRIS

Associated space launch

Second generation ELING satellite

SL-16 DEB was lifted into orbit during the mission ‘Zenit-2 | Tselina-2 12’, on board a Zenit-2 space rocket.

The launch took place on Dec. 25, 1992, 5:56 a.m. from 45/1.

For more information about the launch, click the button.

Launch to space Zenit-2 | Tselina-2 12
Zenit-2 | Tselina-2 12

Agency: N/A

Status: Launch Successful

Launch date: Dec. 25, 1992, 5:56 a.m. UTC

Rocket: Zenit-2

Launch pad: 45/1

Location: Baikonur Cosmodrome, Republic of Kazakhstan

...

Latest news about this satellite

There are no fresh news available about this satellite. Check back as we update our databases every day.


Newsletter sign-up

Weekly statistics, charts and insights to help you stay on top of the space industry.